Location: Bogis-Bossey
(46.3500°N, 6.1667°E)
Time: 19:15:17
(UTC+00:00)

USA 238 DEB - Pass Details

Date: 28 February 2024
Orbit: 926 x 1285 km, 63.4° (Epoch: 21 April)

Event Time Altitude Azimuth Distance (km) Brightness Sun altitude
Exits shadow 02:29:29 27° 105° (ESE) 1,816 5.1 -38.6°
Drops below altitude 10° 02:34:25 10° 57° (ENE) 2,833 6.6 -37.9°
Sets 02:37:32 0° 46° (NE) 3,850 7.5 -37.4°
